Preview of NWS' New Version of Forecast
This preview is not operational and should not be used for support decisions.

Regional Weather Roundup (RWR)

Issued by National Weather Service (NWS)

                            
000
ASUS43 KMKX 181800
RWRWI 

WISCONSIN REGIONAL WEATHER ROUNDUP
NATIONAL WEATHER SERVICE MILWAUKEE/SULLIVAN WI
1200 PM CST MON FEB 18 2019

NOTE: "FAIR" INDICATES FEW OR NO CLOUDS BELOW 12,000 FEET WITH NO
SIGNIFICANT WEATHER AND/OR OBSTRUCTIONS TO VISIBILITY.

WIZ001-002-006>008-014>016-023>028-181900-
NORTHWEST WISCONSIN
  
CITY           SKY/WX    TMP DP  RH WIND       PRES   REMARKS
SUPERIOR ARPT  FAIR      12   1  62 CALM      30.49R                  
6HR MIN TEMP:   0; 6HR MAX TEMP:  11;                                

ASHLAND        FAIR      13   3  64 CALM      30.47R                  
6HR MIN TEMP:   5; 6HR MAX TEMP:  13;                                

HAYWARD        FAIR      15   4  61 VRB5      30.41S WCI   8          
6HR MIN TEMP: -12; 6HR MAX TEMP:  15;                                

SIREN          FAIR      15   5  63 CALM      30.45S                  
CUMBERLAND     FAIR      16   5  62 N7        30.42R WCI   6          
RICE LAKE      FAIR      15   5  66 N3        30.44S                  
6HR MIN TEMP:  -7; 6HR MAX TEMP:  15;                                

CHETEK         FAIR      15   4  62 NW5       30.44R WCI   8          
6HR MIN TEMP:  -3; 6HR MAX TEMP:  15;                                

LADYSMITH      FAIR      17   5  58 NW6       30.41R WCI   9          
6HR MIN TEMP:  -4; 6HR MAX TEMP:  17;                                

EAU CLAIRE     NOT AVBL                                               
MENOMONIE      FAIR      11   1  62 CALM      30.46R                  
6HR MIN TEMP:  -1; 6HR MAX TEMP:  12;                                

NEW RICHMOND   FAIR      17   4  57 CALM      30.46R                  
6HR MIN TEMP:  -6; 6HR MAX TEMP:  17;                                

OSCEOLA        FAIR      16   8  68 NW6       30.50R WCI   8          
6HR MIN TEMP: -10; 6HR MAX TEMP:  16;                                

$$
 
WIZ003>005-009-010-017-018-181900-
NORTH CENTRAL WISCONSIN
  
CITY           SKY/WX    TMP DP  RH WIND       PRES   REMARKS
MANITOWISH WTR NOT AVBL                                               
ARBOR VITAE    FAIR      17   6  63 N6        30.33S WCI   8          
6HR MIN TEMP:   9; 6HR MAX TEMP:  17;                                

WOODRUFF       FAIR      17   6  63 N6        30.33S WCI   8          
6HR MIN TEMP:   9; 6HR MAX TEMP:  17;                                

RHINELANDER    FAIR      15   3  59 VRB6      30.33S WCI   6          
6HR MIN TEMP:   1; 6HR MAX TEMP:  15;                                

EAGLE RIVER    FAIR      12   1  62 CALM      30.33R                  
6HR MIN TEMP:   2; 6HR MAX TEMP:  12;                                

LAND O LAKES   FAIR      13   2  62 NE7       30.34S WCI   2          
6HR MIN TEMP:   3; 6HR MAX TEMP:  13;                                

PHILLIPS       FAIR      14   2  59 N5        30.35R WCI   6          
6HR MIN TEMP: -12; 6HR MAX TEMP:  14;                                

TOMAHAWK       FAIR      16   3  56 CALM      30.35S                  
6HR MIN TEMP:  -8; 6HR MAX TEMP:  17;                                

MEDFORD        FAIR      14   3  61 CALM      30.35R                  
6HR MIN TEMP:   0; 6HR MAX TEMP:  15;                                

MERRILL        FAIR      17   4  55 N3        30.36R                  
6HR MIN TEMP:   2; 6HR MAX TEMP:  17;                                

$$
 
WIZ029-030-035-036-043>047-181900-
CENTRAL WISCONSIN
  
CITY           SKY/WX    TMP DP  RH WIND       PRES   REMARKS
WAUSAU         FAIR      17   5  59 W7        30.34R WCI   8          
6HR MIN TEMP:   4; 6HR MAX TEMP:  18;                                

MOSINEE        SUNNY     18   7  62 VRB3      30.36R                  
MARSHFIELD     FAIR      16   5  62 NW3       30.35R                  
6HR MIN TEMP:   6; 6HR MAX TEMP:  16;                                

STEVENS POINT  FAIR      17   4  56 CALM      30.37R                  
WAUPACA        FAIR      23   7  50 CALM      30.39R                  
6HR MIN TEMP:  12; 6HR MAX TEMP:  23;                                

WAUTOMA        FAIR      33  11  39 CALM      30.39R                  
6HR MIN TEMP:   8; 6HR MAX TEMP:  34;                                

WISC RAPIDS    FAIR      20   6  55 CALM      30.39R                  
6HR MIN TEMP:   8; 6HR MAX TEMP:  20;                                

CAMP DOUGLAS   FAIR      20   8  60 W6        30.39S WCI  12          
6HR MIN TEMP:   0; 6HR MAX TEMP:  20;                                

$$
 
WIZ011>013-019>022-031-037>040-048>050-181900-
NORTHEAST WISCONSIN
  
CITY           SKY/WX    TMP DP  RH WIND       PRES   REMARKS
ANTIGO         FAIR      15   5  65 CALM      30.33R                  
6HR MIN TEMP:  -2; 6HR MAX TEMP:  15;                                

SHAWANO        FAIR      31  11  43 E5        30.37R WCI  26          
6HR MIN TEMP:  12; 6HR MAX TEMP:  31;                                

OCONTO         FAIR      19   8  61 N6        30.39R WCI  11          
STURGEON BAY   FAIR      20  11  68 N9        30.36S WCI   9          
6HR MIN TEMP:  11; 6HR MAX TEMP:  20; 6HR PCP: TRACE;                

GREEN BAY      CLOUDY    25  10  53 NW6       30.38R WCI  18          
6HR MIN TEMP:  14; 6HR MAX TEMP:  26;                                

MANITOWOC      FAIR      22  11  62 NW12      30.37R WCI  10          
6HR MIN TEMP:  13; 6HR MAX TEMP:  22; 6HR PCP: TRACE;                

APPLETON       SUNNY     19   3  49 N7        30.35R WCI  10          
CLINTONVILLE   FAIR      20   6  54 CALM      30.37S                  
6HR MIN TEMP:  11; 6HR MAX TEMP:  20;                                

OSHKOSH        FAIR      21   9  59 N7        30.37R WCI  12          
6HR MIN TEMP:  11; 6HR MAX TEMP:  21;                                

$$
 
WIZ032>034-041-042-053>061-181900-
SOUTHWEST WISCONSIN
  
CITY           SKY/WX    TMP DP  RH WIND       PRES   REMARKS
LA CROSSE      FAIR      18   8  65 W8        30.45R WCI   8          
6HR MIN TEMP:   5; 6HR MAX TEMP:  18; 6HR PCP: TRACE;                

SPARTA         FAIR      21  10  60 CALM      30.42R                  
VIROQUA        FAIR      21  12  68 NW3       30.37S                  
6HR MIN TEMP:   5; 6HR MAX TEMP:  21;                                

BOSCOBEL       FAIR      25  12  58 CALM      30.42R                  
6HR MIN TEMP:   7; 6HR MAX TEMP:  25;                                

PRAIRIE DU CHI FAIR      22  11  62 W5        30.43S WCI  16          
6HR MIN TEMP:  11; 6HR MAX TEMP:  22; 6HR PCP:  0.01;                

PLATTEVILLE    FAIR      21  15  78 N8        30.39R WCI  12          
6HR MIN TEMP:  15; 6HR MAX TEMP:  21;                                

$$

WIZ056-057-062-063-064-067-068-181900-
SOUTH CENTRAL WISCONSIN
  
CITY           SKY/WX    TMP DP  RH WIND       PRES   REMARKS
REEDSBURG      FAIR      21  10  63 CALM      30.39S                  
6HR MIN TEMP:   9; 6HR MAX TEMP:  22;                                

BARABOO/DELLS  FAIR      22  11  61 CALM      30.38S                  
6HR MIN TEMP:  10; 6HR MAX TEMP:  23;                                

LONE ROCK      NOT AVBL                                               
MINERAL POINT  FAIR      25  16  68 CALM      30.36S                  
MADISON        FAIR      20  11  68 N6        30.38R WCI  12          
6HR MIN TEMP:  14; 6HR MAX TEMP:  20;                                

MIDDLETON      FAIR      22  12  67 CALM      30.39R                  
WATERTOWN      FAIR      20  11  68 NW7       30.37R WCI  11          
6HR MIN TEMP:  15; 6HR MAX TEMP:  20;                                

MONROE         FAIR      22  12  65 MISG      30.37R                  
6HR MIN TEMP:  15; 6HR MAX TEMP:  22;                                

JANESVILLE     SUNNY     27  14  59 N6        30.38R WCI  20          
$$
 
WIZ051-052-058>065-066-070>072-181900-
SOUTHEAST WISCONSIN
  
CITY           SKY/WX    TMP DP  RH WIND       PRES   REMARKS
MILWAUKEE      FAIR      28  12  51 N9        30.35R WCI  19          
6HR MIN TEMP:  19; 6HR MAX TEMP:  28; 6HR PCP: TRACE;                

WAUKESHA       SUNNY     23  10  58 NW6       30.35R WCI  16          
MILWAUKEE/TIMM SUNNY     25   9  50 N6        30.36R WCI  18          
RACINE         PTSUNNY   25  15  66 N13       30.37R WCI  14          
6HR MIN TEMP:  19; 6HR MAX TEMP:  26; 6HR PCP: TRACE;                

KENOSHA        FAIR      27  15  61 N9        30.35R WCI  18          
6HR MIN TEMP:  20; 6HR MAX TEMP:  27; 6HR PCP: TRACE;                

FOND DU LAC    FAIR      20   9  62 NE8       30.38R WCI  10          
6HR MIN TEMP:   9; 6HR MAX TEMP:  20; 6HR PCP: TRACE;                

SHEBOYGAN      FAIR      21   9  59 N13       30.36R WCI   9          
6HR MIN TEMP:  12; 6HR MAX TEMP:  21; 6HR PCP: TRACE;                

WEST BEND      FAIR      23  10  58 NW7       30.35R WCI  15          
JUNEAU         FAIR      19  10  67 NW6       30.37R WCI  11          
6HR MIN TEMP:  12; 6HR MAX TEMP:  19;                                

$$

LSZ147-162-181900-
LAKE SUPERIOR
  
STATION/POSITION TIME  TEMP    WIND        PRES    WAVE
                       AIR SEA DIR/SP/G            HT/PER
                 (UTC) (F)     (DEG/KT/KT) (MB)    (FT/S)
DEVILS ISLAND    1700   11     330/  3/  6 1033.4R
SAXON HARBOR     1740   12     330/  5/  7 1031.2R
$$
 
LMZ867-665-643>646-181900-
LAKE MICHIGAN
  
STATION/POSITION TIME  TEMP    WIND        PRES    WAVE
                       AIR SEA DIR/SP/G            HT/PER
                 (UTC) (F)     (DEG/KT/KT) (MB)    (FT/S)
CHAMBERS ISLAND  1740   17      20/  9/ 10 1027.8R
NORTHPORT PIER   1740   18     340/  5/  5 1028.4R
KEWAUNEE LAKESHO 1724   20     350/  9/ 13 1027.2
SHEBOYGAN LAKESH 1700   20     350/ 15/ 18 1028.6R
PORT WASHINGTON  1730   24     350/  7/ 12 1029.1R
MILWAUKEE LAKESH 1740   25     350/  5/  9   N/A
KENOSHA   LAKESH 1700   24     330/  9/ 11 1027.1
$$

TC  - TEMPERATURE IN CELSIUS
VSB - VISIBILITY IN STATUTE MILES
WCI - WIND CHILL INDEX
HX  - HEAT INDEX